Location: Newark
(25.6108°S, 54.5803°W)
Time: 07:52:41
(UTC+00:00)

Tiros 1 - Pass Details

Date: 31 October 2020
Orbit: 630 x 664 km, 48.4° (Epoch: 29 November)

Event Time Altitude Azimuth Distance (km) Brightness Sun altitude
Rises 01:34:14 0° 232° (SW) 3,008 11.4 -42.3°
Enters shadow 01:36:12 - 236° (SW) 2,253 10.5 -42.6°
Reaches altitude 10° 01:36:39 10° 237° (WSW) 2,087 - -42.6°
Maximum altitude 01:41:18 50° 312° (NW) 838 - -43.2°
Drops below altitude 10° 01:45:53 10° 27° (NNE) 2,049 - -43.8°
Sets 01:48:15 0° 32° (NNE) 2,948 - -44.1°
